Time,TemperatureF,DewpointF,PressureIn,WindDirection,WindDirectionDegrees,WindSpeedMPH,WindSpeedGustMPH,Humidity,HourlyPrecipIn,Conditions,Clouds,dailyrainin,SoftwareType,DateUTC
2013-02-22 00:00:00,21.6,16.9,30.03,ESE,113,1.1,4.7,82,0.00,,,0.00,WUHU216HW,2013-02-22 05:00:00,
2013-02-22 00:05:00,21.6,16.9,30.03,ESE,113,3.1,4.5,82,0.00,,,0.00,WUHU216HW,2013-02-22 05:05:00,
2013-02-22 00:10:00,21.8,17.1,30.02,East,90,1.1,3.6,82,0.00,,,0.00,WUHU216HW,2013-02-22 05:10:00,
2013-02-22 00:15:00,21.8,17.1,30.01,ENE,68,2.5,4.0,82,0.00,,,0.00,WUHU216HW,2013-02-22 05:15:00,
2013-02-22 00:20:00,21.8,17.1,30.01,ENE,68,2.9,4.7,82,0.00,,,0.00,WUHU216HW,2013-02-22 05:20:00,
2013-02-22 00:25:00,21.8,17.1,30.00,East,90,1.8,4.7,82,0.00,,,0.00,WUHU216HW,2013-02-22 05:25:00,
2013-02-22 00:30:00,22.0,17.3,30.01,ENE,68,1.1,5.4,82,0.00,,,0.00,WUHU216HW,2013-02-22 05:30:00,
2013-02-22 00:35:00,22.0,17.3,30.02,ESE,113,1.1,5.4,82,0.00,,,0.00,WUHU216HW,2013-02-22 05:35:00,
2013-02-22 00:40:00,22.0,17.3,30.00,East,90,3.1,3.8,82,0.00,,,0.00,WUHU216HW,2013-02-22 05:40:00,
2013-02-22 00:45:00,21.8,17.1,29.99,East,90,4.3,5.8,82,0.00,,,0.00,WUHU216HW,2013-02-22 05:45:00,
2013-02-22 00:50:00,21.8,17.1,29.99,ENE,68,4.3,6.3,82,0.00,,,0.00,WUHU216HW,2013-02-22 05:50:00,
2013-02-22 00:55:00,21.8,17.1,29.99,ENE,68,1.3,7.6,82,0.00,,,0.00,WUHU216HW,2013-02-22 05:55:00,
2013-02-22 01:00:00,22.0,17.3,30.00,East,90,3.4,7.6,82,0.00,,,0.00,WUHU216HW,2013-02-22 06:00:00,
2013-02-22 01:05:00,22.0,17.3,30.01,NE,45,0.7,3.6,82,0.00,,,0.00,WUHU216HW,2013-02-22 06:05:00,
2013-02-22 01:10:00,22.0,17.3,30.02,ESE,113,2.2,3.6,82,0.00,,,0.00,WUHU216HW,2013-02-22 06:10:00,
2013-02-22 01:15:00,22.0,17.3,30.01,SSE,158,4.3,4.3,82,0.00,,,0.00,WUHU216HW,2013-02-22 06:15:00,
2013-02-22 01:20:00,22.0,17.3,30.01,SE,135,1.1,5.6,82,0.00,,,0.00,WUHU216HW,2013-02-22 06:20:00,
2013-02-22 01:25:00,22.0,17.3,30.01,ESE,113,2.9,5.6,82,0.00,,,0.00,WUHU216HW,2013-02-22 06:25:00,
2013-02-22 01:30:00,22.0,17.3,30.01,ESE,113,1.8,2.9,82,0.00,,,0.00,WUHU216HW,2013-02-22 06:30:00,
2013-02-22 01:35:00,22.0,17.3,30.01,ESE,113,2.2,3.8,82,0.00,,,0.00,WUHU216HW,2013-02-22 06:35:00,
2013-02-22 01:40:00,22.0,17.3,30.01,East,90,1.1,5.4,82,0.00,,,0.00,WUHU216HW,2013-02-22 06:40:00,
2013-02-22 01:45:00,22.0,17.3,30.01,ESE,113,2.0,5.4,82,0.00,,,0.00,WUHU216HW,2013-02-22 06:45:00,
2013-02-22 01:50:00,22.0,17.3,30.01,ESE,113,1.8,3.8,82,0.00,,,0.00,WUHU216HW,2013-02-22 06:50:00,
2013-02-22 01:55:00,22.0,17.3,30.00,East,90,2.5,3.1,82,0.00,,,0.00,WUHU216HW,2013-02-22 06:55:00,
2013-02-22 02:00:00,22.0,17.3,30.00,ESE,113,1.6,4.7,82,0.00,,,0.00,WUHU216HW,2013-02-22 07:00:00,
2013-02-22 02:05:00,22.0,17.0,30.00,ESE,113,2.2,4.7,81,0.00,,,0.00,WUHU216HW,2013-02-22 07:05:00,
2013-02-22 02:10:00,22.0,17.3,30.00,ENE,68,3.4,4.7,82,0.00,,,0.00,WUHU216HW,2013-02-22 07:10:00,
2013-02-22 02:15:00,21.8,17.1,29.99,South,180,2.5,4.9,82,0.00,,,0.00,WUHU216HW,2013-02-22 07:15:00,
2013-02-22 02:20:00,21.8,17.1,29.99,East,90,1.8,6.0,82,0.00,,,0.00,WUHU216HW,2013-02-22 07:20:00,
2013-02-22 02:25:00,21.8,17.1,29.99,SE,135,1.3,6.0,82,0.00,,,0.00,WUHU216HW,2013-02-22 07:25:00,
2013-02-22 02:30:00,21.8,17.1,29.98,ESE,113,1.1,5.1,82,0.00,,,0.00,WUHU216HW,2013-02-22 07:30:00,
2013-02-22 02:35:00,21.8,17.1,29.98,ESE,113,1.8,5.4,82,0.00,,,0.00,WUHU216HW,2013-02-22 07:35:00,
2013-02-22 02:40:00,22.0,17.3,29.98,NE,45,3.6,5.4,82,0.00,,,0.00,WUHU216HW,2013-02-22 07:40:00,
2013-02-22 02:45:00,21.8,17.1,29.98,SE,135,3.8,5.1,82,0.00,,,0.00,WUHU216HW,2013-02-22 07:45:00,
2013-02-22 02:50:00,21.8,17.1,29.97,ESE,113,2.0,5.1,82,0.00,,,0.00,WUHU216HW,2013-02-22 07:50:00,
2013-02-22 02:55:00,21.8,17.1,29.97,SE,135,1.6,4.0,82,0.00,,,0.00,WUHU216HW,2013-02-22 07:55:00,
2013-02-22 03:00:00,21.8,17.1,29.97,ESE,113,0.2,4.5,82,0.00,,,0.00,WUHU216HW,2013-02-22 08:00:00,
2013-02-22 03:05:00,21.8,17.1,29.96,East,90,6.3,6.3,82,0.00,,,0.00,WUHU216HW,2013-02-22 08:05:00,
2013-02-22 03:10:00,21.8,17.1,29.96,ESE,113,2.2,6.3,82,0.00,,,0.00,WUHU216HW,2013-02-22 08:10:00,
2013-02-22 03:15:00,21.8,17.1,29.95,ESE,113,3.1,4.0,82,0.00,,,0.00,WUHU216HW,2013-02-22 08:15:00,
2013-02-22 03:20:00,21.8,17.1,29.95,NE,45,2.0,6.9,82,0.00,,,0.00,WUHU216HW,2013-02-22 08:20:00,
2013-02-22 03:25:00,21.8,17.1,29.94,ESE,113,5.6,6.9,82,0.00,,,0.00,WUHU216HW,2013-02-22 08:25:00,
2013-02-22 03:30:00,21.6,16.9,29.93,East,90,3.8,6.3,82,0.00,,,0.00,WUHU216HW,2013-02-22 08:30:00,
2013-02-22 03:35:00,21.6,16.9,29.93,East,90,3.8,6.3,82,0.00,,,0.00,WUHU216HW,2013-02-22 08:35:00,
2013-02-22 03:40:00,21.6,16.9,29.92,ESE,113,1.6,5.4,82,0.00,,,0.00,WUHU216HW,2013-02-22 08:40:00,
2013-02-22 03:45:00,21.6,16.9,29.92,East,90,2.5,4.7,82,0.00,,,0.00,WUHU216HW,2013-02-22 08:45:00,
2013-02-22 03:50:00,21.6,16.9,29.91,East,90,2.7,6.9,82,0.00,,,0.00,WUHU216HW,2013-02-22 08:50:00,
2013-02-22 03:55:00,21.6,16.9,29.90,SE,135,4.5,6.9,82,0.00,,,0.00,WUHU216HW,2013-02-22 08:55:00,
2013-02-22 04:00:00,21.6,16.9,29.90,ESE,113,2.9,6.7,82,0.00,,,0.00,WUHU216HW,2013-02-22 09:00:00,
2013-02-22 04:05:00,21.6,16.9,29.89,ESE,113,3.1,6.7,82,0.00,,,0.00,WUHU216HW,2013-02-22 09:05:00,
2013-02-22 04:10:00,21.8,17.4,29.89,East,90,4.9,4.9,83,0.00,,,0.00,WUHU216HW,2013-02-22 09:10:00,
2013-02-22 04:15:00,21.6,16.9,29.88,ENE,68,3.4,8.9,82,0.00,,,0.00,WUHU216HW,2013-02-22 09:15:00,
2013-02-22 04:20:00,21.8,17.1,29.88,East,90,3.6,8.9,82,0.00,,,0.00,WUHU216HW,2013-02-22 09:20:00,
2013-02-22 04:25:00,21.8,17.1,29.88,East,90,6.5,6.5,82,0.00,,,0.00,WUHU216HW,2013-02-22 09:25:00,
2013-02-22 04:30:00,21.6,17.2,29.87,East,90,3.4,7.4,83,0.00,,,0.00,WUHU216HW,2013-02-22 09:30:00,
2013-02-22 04:35:00,21.8,17.4,29.87,ENE,68,0.9,7.4,83,0.00,,,0.00,WUHU216HW,2013-02-22 09:35:00,
2013-02-22 04:40:00,21.8,17.4,29.86,ENE,68,2.7,10.1,83,0.00,,,0.00,WUHU216HW,2013-02-22 09:40:00,
2013-02-22 04:45:00,21.8,17.4,29.86,East,90,2.5,10.1,83,0.00,,,0.00,WUHU216HW,2013-02-22 09:45:00,
2013-02-22 04:50:00,21.8,17.4,29.86,East,90,1.6,8.3,83,0.00,,,0.00,WUHU216HW,2013-02-22 09:50:00,
2013-02-22 04:55:00,22.0,17.6,29.86,NNE,23,1.1,8.9,83,0.00,,,0.00,WUHU216HW,2013-02-22 09:55:00,
2013-02-22 05:00:00,22.0,17.6,29.86,East,90,2.9,8.9,83,0.00,,,0.00,WUHU216HW,2013-02-22 10:00:00,
2013-02-22 05:05:00,22.0,17.6,29.87,East,90,4.0,5.8,83,0.00,,,0.00,WUHU216HW,2013-02-22 10:05:00,
2013-02-22 05:10:00,22.1,17.7,29.86,NE,45,3.4,5.8,83,0.00,,,0.00,WUHU216HW,2013-02-22 10:10:00,
2013-02-22 05:15:00,22.1,17.7,29.85,ENE,68,3.4,6.3,83,0.00,,,0.00,WUHU216HW,2013-02-22 10:15:00,
2013-02-22 05:20:00,22.3,17.9,29.85,East,90,4.7,7.2,83,0.00,,,0.00,WUHU216HW,2013-02-22 10:20:00,
2013-02-22 05:25:00,22.3,17.9,29.85,East,90,1.1,7.2,83,0.00,,,0.00,WUHU216HW,2013-02-22 10:25:00,
2013-02-22 05:30:00,22.5,17.8,29.85,ENE,68,4.5,6.9,82,0.00,,,0.00,WUHU216HW,2013-02-22 10:30:00,
2013-02-22 05:35:00,22.5,17.8,29.85,East,90,1.1,8.5,82,0.00,,,0.00,WUHU216HW,2013-02-22 10:35:00,
2013-02-22 05:40:00,22.7,18.0,29.85,SE,135,6.0,9.4,82,0.00,,,0.00,WUHU216HW,2013-02-22 10:40:00,
2013-02-22 05:45:00,22.7,18.0,29.84,NE,45,3.4,9.4,82,0.00,,,0.00,WUHU216HW,2013-02-22 10:45:00,
2013-02-22 05:50:00,22.7,18.0,29.84,East,90,3.4,6.9,82,0.00,,,0.00,WUHU216HW,2013-02-22 10:50:00,
2013-02-22 05:55:00,22.7,18.0,29.85,SE,135,2.5,6.9,82,0.00,,,0.00,WUHU216HW,2013-02-22 10:55:00,
2013-02-22 06:00:00,22.9,18.2,29.87,SE,135,3.1,4.7,82,0.00,,,0.00,WUHU216HW,2013-02-22 11:00:00,
2013-02-22 06:05:00,22.9,18.2,29.87,East,90,1.3,3.8,82,0.00,,,0.00,WUHU216HW,2013-02-22 11:05:00,
2013-02-22 06:10:00,23.0,18.4,29.87,East,90,1.3,3.8,82,0.00,,,0.00,WUHU216HW,2013-02-22 11:10:00,
2013-02-22 06:15:00,23.0,18.4,29.87,East,90,2.2,4.5,82,0.00,,,0.00,WUHU216HW,2013-02-22 11:15:00,
2013-02-22 06:20:00,23.0,18.4,29.87,East,90,3.4,4.5,82,0.00,,,0.00,WUHU216HW,2013-02-22 11:20:00,
2013-02-22 06:25:00,23.2,18.5,29.86,ESE,113,1.8,5.4,82,0.00,,,0.00,WUHU216HW,2013-02-22 11:25:00,
2013-02-22 06:30:00,23.0,18.4,29.85,ENE,68,5.1,6.7,82,0.00,,,0.00,WUHU216HW,2013-02-22 11:30:00,
2013-02-22 06:35:00,23.0,18.6,29.84,East,90,3.1,8.9,83,0.00,,,0.00,WUHU216HW,2013-02-22 11:35:00,
2013-02-22 06:40:00,23.0,18.9,29.83,NNE,23,7.8,8.9,84,0.00,,,0.00,WUHU216HW,2013-02-22 11:40:00,
2013-02-22 06:45:00,22.9,19.0,29.81,NE,45,7.6,8.9,85,0.00,,,0.00,WUHU216HW,2013-02-22 11:45:00,
2013-02-22 06:50:00,22.7,18.8,29.80,East,90,4.7,8.9,85,0.00,,,0.00,WUHU216HW,2013-02-22 11:50:00,
2013-02-22 06:55:00,22.7,18.8,29.79,ESE,113,5.4,8.9,85,0.00,,,0.00,WUHU216HW,2013-02-22 11:55:00,
2013-02-22 07:00:00,22.7,19.1,29.79,NNE,23,4.9,8.9,86,0.00,,,0.00,WUHU216HW,2013-02-22 12:00:00,
2013-02-22 07:05:00,22.7,19.1,29.79,ENE,68,6.0,8.1,86,0.00,,,0.00,WUHU216HW,2013-02-22 12:05:00,
2013-02-22 07:10:00,22.7,19.4,29.80,ENE,68,7.8,7.8,87,0.00,,,0.00,WUHU216HW,2013-02-22 12:10:00,
2013-02-22 07:15:00,22.7,19.1,29.80,East,90,1.3,7.8,86,0.00,,,0.00,WUHU216HW,2013-02-22 12:15:00,
2013-02-22 07:20:00,22.9,19.3,29.81,NE,45,5.4,6.3,86,0.00,,,0.00,WUHU216HW,2013-02-22 12:20:00,
2013-02-22 07:25:00,22.9,19.5,29.81,ENE,68,4.5,8.1,87,0.00,,,0.00,WUHU216HW,2013-02-22 12:25:00,
2013-02-22 07:30:00,22.9,19.5,29.81,East,90,2.9,8.1,87,0.00,,,0.00,WUHU216HW,2013-02-22 12:30:00,
2013-02-22 07:36:00,22.9,19.5,29.80,ESE,113,4.0,5.8,87,0.00,,,0.00,WUHU216HW,2013-02-22 12:36:00,
2013-02-22 07:41:00,22.9,19.5,29.80,East,90,4.5,6.0,87,0.00,,,0.00,WUHU216HW,2013-02-22 12:41:00,
2013-02-22 07:46:00,22.9,19.5,29.80,ENE,68,2.2,6.0,87,0.00,,,0.00,WUHU216HW,2013-02-22 12:46:00,
2013-02-22 07:51:00,22.9,19.8,29.79,East,90,2.7,10.5,88,0.00,,,0.00,WUHU216HW,2013-02-22 12:51:00,
2013-02-22 07:56:00,23.0,20.0,29.79,NE,45,3.4,10.5,88,0.00,,,0.00,WUHU216HW,2013-02-22 12:56:00,
2013-02-22 08:01:00,23.0,20.0,29.78,ESE,113,8.5,8.5,88,0.00,,,0.00,WUHU216HW,2013-02-22 13:01:00,
2013-02-22 08:06:00,23.0,20.0,29.78,ENE,68,4.7,8.5,88,0.00,,,0.00,WUHU216HW,2013-02-22 13:06:00,
2013-02-22 08:11:00,23.0,20.0,29.77,East,90,4.9,9.8,88,0.00,,,0.00,WUHU216HW,2013-02-22 13:11:00,
2013-02-22 08:16:00,23.2,20.2,29.77,NE,45,3.8,9.8,88,0.00,,,0.00,WUHU216HW,2013-02-22 13:16:00,
2013-02-22 08:21:00,23.2,20.2,29.77,ENE,68,2.9,7.6,88,0.00,,,0.00,WUHU216HW,2013-02-22 13:21:00,
2013-02-22 08:26:00,23.2,20.2,29.77,ESE,113,4.9,8.5,88,0.00,,,0.00,WUHU216HW,2013-02-22 13:26:00,
2013-02-22 08:31:00,23.2,20.2,29.77,SE,135,3.4,8.5,88,0.00,,,0.00,WUHU216HW,2013-02-22 13:31:00,
2013-02-22 08:36:00,23.0,20.0,29.77,ENE,68,4.0,7.6,88,0.00,,,0.00,WUHU216HW,2013-02-22 13:36:00,
2013-02-22 08:41:00,23.0,20.0,29.77,SE,135,5.8,7.6,88,0.00,,,0.00,WUHU216HW,2013-02-22 13:41:00,
2013-02-22 08:46:00,23.0,20.0,29.77,SE,135,8.5,8.5,88,0.00,,,0.00,WUHU216HW,2013-02-22 13:46:00,
2013-02-22 08:51:00,23.0,20.0,29.77,ENE,68,1.8,8.5,88,0.00,,,0.00,WUHU216HW,2013-02-22 13:51:00,
2013-02-22 08:56:00,23.0,20.0,29.77,ENE,68,1.1,8.5,88,0.00,,,0.00,WUHU216HW,2013-02-22 13:56:00,
2013-02-22 09:01:00,23.0,20.0,29.77,East,90,5.8,6.0,88,0.00,,,0.00,WUHU216HW,2013-02-22 14:01:00,
2013-02-22 09:06:00,23.0,20.0,29.77,East,90,4.3,6.0,88,0.00,,,0.00,WUHU216HW,2013-02-22 14:06:00,
2013-02-22 09:11:00,23.0,20.0,29.76,ESE,113,3.4,7.4,88,0.00,,,0.00,WUHU216HW,2013-02-22 14:11:00,
2013-02-22 09:16:00,23.2,20.2,29.77,East,90,3.4,7.4,88,0.00,,,0.00,WUHU216HW,2013-02-22 14:16:00,
2013-02-22 09:21:00,23.4,20.3,29.77,SE,135,3.4,4.9,88,0.00,,,0.00,WUHU216HW,2013-02-22 14:21:00,
2013-02-22 09:26:00,23.4,20.3,29.76,East,90,1.8,4.3,88,0.00,,,0.00,WUHU216HW,2013-02-22 14:26:00,
2013-02-22 09:31:00,23.6,20.5,29.76,East,90,1.8,6.7,88,0.00,,,0.00,WUHU216HW,2013-02-22 14:31:00,
2013-02-22 09:36:00,23.9,20.9,29.76,ESE,113,1.6,6.7,88,0.00,,,0.00,WUHU216HW,2013-02-22 14:36:00,
2013-02-22 09:41:00,24.3,21.2,29.75,NNE,23,4.3,5.4,88,0.00,,,0.00,WUHU216HW,2013-02-22 14:41:00,
2013-02-22 09:46:00,24.7,21.6,29.75,East,90,3.4,5.4,88,0.00,,,0.00,WUHU216HW,2013-02-22 14:46:00,
2013-02-22 09:51:00,24.8,21.8,29.75,East,90,3.6,5.8,88,0.00,,,0.00,WUHU216HW,2013-02-22 14:51:00,
2013-02-22 09:56:00,25.0,22.2,29.75,ESE,113,2.5,5.8,89,0.00,,,0.00,WUHU216HW,2013-02-22 14:56:00,
2013-02-22 10:01:00,25.4,22.3,29.75,East,90,5.6,6.3,88,0.00,,,0.00,WUHU216HW,2013-02-22 15:01:00,
2013-02-22 10:06:00,25.4,22.3,29.75,East,90,3.6,6.3,88,0.00,,,0.00,WUHU216HW,2013-02-22 15:06:00,
2013-02-22 10:11:00,25.7,22.7,29.75,SE,135,4.0,5.6,88,0.00,,,0.00,WUHU216HW,2013-02-22 15:11:00,
2013-02-22 10:16:00,26.3,23.2,29.74,ESE,113,2.2,7.2,88,0.00,,,0.00,WUHU216HW,2013-02-22 15:16:00,
2013-02-22 10:21:00,26.5,23.0,29.74,ESE,113,4.5,7.2,87,0.00,,,0.00,WUHU216HW,2013-02-22 15:21:00,
2013-02-22 10:26:00,26.8,23.4,29.73,SSE,158,2.5,4.5,87,0.00,,,0.00,WUHU216HW,2013-02-22 15:26:00,
2013-02-22 10:31:00,27.0,23.3,29.73,ESE,113,2.5,4.5,86,0.00,,,0.00,WUHU216HW,2013-02-22 15:31:00,
2013-02-22 10:36:00,27.0,23.0,29.73,ESE,113,3.1,5.4,85,0.00,,,0.00,WUHU216HW,2013-02-22 15:36:00,
2013-02-22 10:41:00,27.2,23.5,29.72,East,90,0.7,5.4,86,0.00,,,0.00,WUHU216HW,2013-02-22 15:41:00,
2013-02-22 10:46:00,27.0,23.0,29.72,ESE,113,4.0,6.3,85,0.00,,,0.00,WUHU216HW,2013-02-22 15:46:00,
2013-02-22 10:51:00,27.2,23.2,29.72,SE,135,1.3,6.3,85,0.00,,,0.00,WUHU216HW,2013-02-22 15:51:00,
2013-02-22 10:56:00,27.4,23.4,29.71,ESE,113,2.0,4.3,85,0.00,,,0.00,WUHU216HW,2013-02-22 15:56:00,
2013-02-22 11:01:00,27.5,23.6,29.71,SE,135,1.6,4.7,85,0.00,,,0.00,WUHU216HW,2013-02-22 16:01:00,
2013-02-22 11:06:00,27.9,23.9,29.71,East,90,4.0,5.4,85,0.00,,,0.00,WUHU216HW,2013-02-22 16:06:00,
2013-02-22 11:11:00,28.1,24.1,29.71,ESE,113,0.9,6.0,85,0.00,,,0.00,WUHU216HW,2013-02-22 16:11:00,
2013-02-22 11:16:00,28.3,24.6,29.71,ESE,113,2.2,6.0,86,0.00,,,0.00,WUHU216HW,2013-02-22 16:16:00,
2013-02-22 11:21:00,28.1,24.1,29.71,ESE,113,1.3,6.9,85,0.00,,,0.00,WUHU216HW,2013-02-22 16:21:00,
2013-02-22 11:26:00,28.1,24.1,29.71,ESE,113,2.9,6.9,85,0.00,,,0.00,WUHU216HW,2013-02-22 16:26:00,
2013-02-22 11:31:00,28.1,24.1,29.71,ESE,113,2.5,3.6,85,0.00,,,0.00,WUHU216HW,2013-02-22 16:31:00,
2013-02-22 11:36:00,28.1,24.1,29.71,ESE,113,4.7,4.7,85,0.00,,,0.00,WUHU216HW,2013-02-22 16:36:00,
2013-02-22 11:41:00,28.1,24.1,29.71,ESE,113,3.4,5.4,85,0.00,,,0.00,WUHU216HW,2013-02-22 16:41:00,
2013-02-22 11:46:00,27.9,23.9,29.71,ENE,68,2.5,5.4,85,0.00,,,0.00,WUHU216HW,2013-02-22 16:46:00,
2013-02-22 11:51:00,27.9,23.9,29.71,East,90,1.6,3.4,85,0.00,,,0.00,WUHU216HW,2013-02-22 16:51:00,
2013-02-22 11:56:00,28.1,24.1,29.71,SSE,158,4.0,4.0,85,0.00,,,0.00,WUHU216HW,2013-02-22 16:56:00,
2013-02-22 12:01:00,28.4,24.8,29.71,East,90,1.6,4.0,86,0.00,,,0.00,WUHU216HW,2013-02-22 17:01:00,
2013-02-22 12:06:00,28.6,24.9,29.71,SSE,158,2.2,4.7,86,0.00,,,0.00,WUHU216HW,2013-02-22 17:06:00,
2013-02-22 12:11:00,28.8,25.1,29.71,SE,135,1.8,4.7,86,0.00,,,0.00,WUHU216HW,2013-02-22 17:11:00,
2013-02-22 12:16:00,29.0,25.3,29.70,SE,135,2.0,4.5,86,0.00,,,0.00,WUHU216HW,2013-02-22 17:16:00,
2013-02-22 12:21:00,29.2,25.5,29.70,ESE,113,3.6,4.9,86,0.00,,,0.00,WUHU216HW,2013-02-22 17:21:00,
2013-02-22 12:26:00,29.2,25.2,29.70,SSE,158,2.9,5.1,85,0.00,,,0.00,WUHU216HW,2013-02-22 17:26:00,
2013-02-22 12:31:00,29.5,25.8,29.70,ESE,113,1.1,5.1,86,0.00,,,0.00,WUHU216HW,2013-02-22 17:31:00,
2013-02-22 12:36:00,29.5,25.8,29.70,SSE,158,2.0,4.9,86,0.00,,,0.00,WUHU216HW,2013-02-22 17:36:00,
2013-02-22 12:41:00,29.5,25.6,29.70,SE,135,2.0,8.3,85,0.00,,,0.00,WUHU216HW,2013-02-22 17:41:00,
2013-02-22 12:46:00,29.5,25.6,29.70,ESE,113,2.5,8.3,85,0.00,,,0.00,WUHU216HW,2013-02-22 17:46:00,
2013-02-22 12:51:00,29.7,26.0,29.69,SE,135,1.6,4.7,86,0.00,,,0.00,WUHU216HW,2013-02-22 17:51:00,
2013-02-22 12:56:00,29.9,26.2,29.70,SE,135,2.5,4.5,86,0.00,,,0.00,WUHU216HW,2013-02-22 17:56:00,
2013-02-22 13:01:00,30.2,26.6,29.69,SE,135,1.8,4.5,86,0.00,,,0.00,WUHU216HW,2013-02-22 18:01:00,
2013-02-22 13:06:00,30.4,26.7,29.69,SSE,158,1.1,2.9,86,0.00,,,0.00,WUHU216HW,2013-02-22 18:06:00,
2013-02-22 13:11:00,30.4,26.7,29.69,SSE,158,2.0,6.5,86,0.00,,,0.00,WUHU216HW,2013-02-22 18:11:00,
2013-02-22 13:16:00,30.6,26.9,29.69,SE,135,0.0,6.5,86,0.00,,,0.00,WUHU216HW,2013-02-22 18:16:00,
2013-02-22 13:21:00,30.8,27.1,29.68,SE,135,0.0,2.5,86,0.00,,,0.00,WUHU216HW,2013-02-22 18:21:00,
2013-02-22 13:26:00,31.0,27.3,29.68,ESE,113,0.4,1.3,86,0.00,,,0.00,WUHU216HW,2013-02-22 18:26:00,
2013-02-22 13:31:00,31.0,27.3,29.68,East,90,1.1,2.0,86,0.00,,,0.00,WUHU216HW,2013-02-22 18:31:00,
2013-02-22 13:36:00,30.8,27.1,29.67,ESE,113,2.9,3.8,86,0.00,,,0.00,WUHU216HW,2013-02-22 18:36:00,
2013-02-22 13:41:00,30.8,27.1,29.67,SE,135,2.5,3.8,86,0.00,,,0.00,WUHU216HW,2013-02-22 18:41:00,
2013-02-22 13:46:00,31.0,27.3,29.67,SE,135,2.9,2.9,86,0.00,,,0.00,WUHU216HW,2013-02-22 18:46:00,
2013-02-22 13:51:00,31.0,27.3,29.67,SSE,158,3.6,4.3,86,0.00,,,0.00,WUHU216HW,2013-02-22 18:51:00,
2013-02-22 13:56:00,31.0,27.3,29.67,ESE,113,1.6,5.4,86,0.00,,,0.00,WUHU216HW,2013-02-22 18:56:00,
2013-02-22 14:01:00,30.8,27.1,29.67,SE,135,4.0,5.4,86,0.00,,,0.00,WUHU216HW,2013-02-22 19:01:00,
2013-02-22 14:06:00,30.8,27.1,29.67,SE,135,3.4,4.7,86,0.00,,,0.00,WUHU216HW,2013-02-22 19:06:00,
2013-02-22 14:11:00,31.0,27.3,29.67,SE,135,3.4,4.3,86,0.00,,,0.00,WUHU216HW,2013-02-22 19:11:00,
2013-02-22 14:16:00,31.0,27.3,29.67,South,180,1.1,4.3,86,0.00,,,0.00,WUHU216HW,2013-02-22 19:16:00,
2013-02-22 14:21:00,31.0,27.3,29.68,SE,135,2.2,3.4,86,0.00,,,0.00,WUHU216HW,2013-02-22 19:21:00,
2013-02-22 14:26:00,31.0,27.3,29.68,SSE,158,1.8,3.4,86,0.00,,,0.00,WUHU216HW,2013-02-22 19:26:00,
2013-02-22 14:31:00,30.8,27.1,29.68,ESE,113,2.5,4.0,86,0.00,,,0.00,WUHU216HW,2013-02-22 19:31:00,
2013-02-22 14:36:00,31.0,27.3,29.67,SSE,158,1.8,4.0,86,0.00,,,0.00,WUHU216HW,2013-02-22 19:36:00,
2013-02-22 14:41:00,31.1,27.5,29.67,ESE,113,1.6,2.5,86,0.00,,,0.00,WUHU216HW,2013-02-22 19:41:00,
2013-02-22 14:46:00,31.3,27.6,29.67,SE,135,1.8,3.4,86,0.00,,,0.00,WUHU216HW,2013-02-22 19:46:00,
2013-02-22 14:51:00,31.3,27.6,29.67,SSE,158,1.3,3.4,86,0.00,,,0.00,WUHU216HW,2013-02-22 19:51:00,
2013-02-22 14:56:00,31.3,27.9,29.67,SE,135,3.4,3.4,87,0.00,,,0.00,WUHU216HW,2013-02-22 19:56:00,
2013-02-22 15:01:00,31.3,27.9,29.67,SE,135,1.3,3.4,87,0.00,,,0.00,WUHU216HW,2013-02-22 20:01:00,
2013-02-22 15:06:00,31.7,28.3,29.67,SSE,158,0.9,2.5,87,0.00,,,0.00,WUHU216HW,2013-02-22 20:06:00,
2013-02-22 15:11:00,31.5,28.1,29.67,SSE,158,5.4,5.4,87,0.00,,,0.00,WUHU216HW,2013-02-22 20:11:00,
2013-02-22 15:16:00,31.3,27.9,29.67,SE,135,1.6,5.4,87,0.00,,,0.00,WUHU216HW,2013-02-22 20:16:00,
2013-02-22 15:21:00,31.5,28.1,29.66,SSE,158,0.2,5.4,87,0.00,,,0.00,WUHU216HW,2013-02-22 20:21:00,
2013-02-22 15:26:00,31.5,28.1,29.66,ESE,113,1.6,3.8,87,0.00,,,0.00,WUHU216HW,2013-02-22 20:26:00,
2013-02-22 15:31:00,31.5,28.1,29.66,SE,135,2.0,3.8,87,0.00,,,0.00,WUHU216HW,2013-02-22 20:31:00,
2013-02-22 15:36:00,31.5,28.1,29.66,ESE,113,2.7,2.7,87,0.00,,,0.00,WUHU216HW,2013-02-22 20:36:00,
2013-02-22 15:41:00,31.5,28.1,29.67,SE,135,1.8,2.7,87,0.00,,,0.00,WUHU216HW,2013-02-22 20:41:00,
2013-02-22 15:46:00,31.7,28.3,29.67,SSE,158,2.0,2.7,87,0.00,,,0.00,WUHU216HW,2013-02-22 20:46:00,
2013-02-22 15:51:00,31.5,28.1,29.67,SE,135,0.4,2.0,87,0.00,,,0.00,WUHU216HW,2013-02-22 20:51:00,
2013-02-22 15:56:00,31.5,28.1,29.67,SSE,158,1.1,1.1,87,0.00,,,0.00,WUHU216HW,2013-02-22 20:56:00,
2013-02-22 16:01:00,31.7,28.3,29.67,SSE,158,1.8,1.8,87,0.00,,,0.00,WUHU216HW,2013-02-22 21:01:00,
2013-02-22 16:06:00,31.5,28.1,29.66,SE,135,1.6,2.7,87,0.00,,,0.00,WUHU216HW,2013-02-22 21:06:00,
2013-02-22 16:11:00,31.5,28.1,29.66,SE,135,2.2,2.7,87,0.00,,,0.00,WUHU216HW,2013-02-22 21:11:00,
2013-02-22 16:16:00,31.5,28.5,29.66,SSE,158,0.4,2.7,88,0.00,,,0.00,WUHU216HW,2013-02-22 21:16:00,
2013-02-22 16:21:00,31.5,28.5,29.66,ESE,113,0.2,2.2,88,0.00,,,0.00,WUHU216HW,2013-02-22 21:21:00,
2013-02-22 16:26:00,31.5,28.5,29.66,SSE,158,1.8,1.8,88,0.00,,,0.00,WUHU216HW,2013-02-22 21:26:00,
2013-02-22 16:31:00,31.5,28.5,29.66,SE,135,1.8,2.5,88,0.00,,,0.00,WUHU216HW,2013-02-22 21:31:00,
2013-02-22 16:36:00,31.3,28.3,29.66,SE,135,1.6,2.5,88,0.00,,,0.00,WUHU216HW,2013-02-22 21:36:00,
2013-02-22 16:41:00,31.3,28.3,29.66,ESE,113,1.1,2.5,88,0.00,,,0.00,WUHU216HW,2013-02-22 21:41:00,
2013-02-22 16:46:00,31.3,28.3,29.66,SE,135,1.1,2.2,88,0.00,,,0.00,WUHU216HW,2013-02-22 21:46:00,
2013-02-22 16:51:00,31.3,28.3,29.66,SSE,158,0.9,2.7,88,0.00,,,0.00,WUHU216HW,2013-02-22 21:51:00,
2013-02-22 16:56:00,31.3,28.3,29.66,SSE,158,1.3,2.7,88,0.00,,,0.00,WUHU216HW,2013-02-22 21:56:00,
2013-02-22 17:01:00,31.3,28.3,29.66,SSE,158,0.4,2.7,88,0.00,,,0.00,WUHU216HW,2013-02-22 22:01:00,
2013-02-22 17:06:00,31.3,28.3,29.66,SE,135,0.4,2.7,88,0.00,,,0.00,WUHU216HW,2013-02-22 22:06:00,
2013-02-22 17:11:00,31.3,28.3,29.66,SE,135,1.1,2.5,88,0.00,,,0.00,WUHU216HW,2013-02-22 22:11:00,
2013-02-22 17:16:00,31.3,28.3,29.66,SSE,158,1.8,2.5,88,0.00,,,0.00,WUHU216HW,2013-02-22 22:16:00,
2013-02-22 17:21:00,31.3,28.3,29.66,SE,135,1.6,2.2,88,0.00,,,0.00,WUHU216HW,2013-02-22 22:21:00,
2013-02-22 17:26:00,31.1,28.4,29.66,SE,135,3.4,3.4,89,0.00,,,0.00,WUHU216HW,2013-02-22 22:26:00,
2013-02-22 17:31:00,31.1,28.4,29.66,SE,135,2.2,3.4,89,0.00,,,0.00,WUHU216HW,2013-02-22 22:31:00,
2013-02-22 17:36:00,31.1,28.4,29.66,SE,135,2.2,2.7,89,0.00,,,0.00,WUHU216HW,2013-02-22 22:36:00,
2013-02-22 17:41:00,31.0,28.2,29.66,SSE,158,1.1,2.5,89,0.00,,,0.00,WUHU216HW,2013-02-22 22:41:00,
2013-02-22 17:46:00,31.0,28.2,29.66,South,180,1.1,2.2,89,0.00,,,0.00,WUHU216HW,2013-02-22 22:46:00,
2013-02-22 17:51:00,31.0,28.2,29.66,SE,135,1.3,1.8,89,0.00,,,0.00,WUHU216HW,2013-02-22 22:51:00,
2013-02-22 17:56:00,31.0,28.2,29.66,SSE,158,1.1,2.5,89,0.00,,,0.00,WUHU216HW,2013-02-22 22:56:00,
2013-02-22 18:01:00,31.0,28.2,29.67,SSE,158,2.9,2.9,89,0.00,,,0.00,WUHU216HW,2013-02-22 23:01:00,
2013-02-22 18:06:00,31.0,28.2,29.67,SSW,203,1.1,4.0,89,0.00,,,0.00,WUHU216HW,2013-02-22 23:06:00,
2013-02-22 18:11:00,31.0,28.2,29.67,SSE,158,1.1,4.0,89,0.00,,,0.00,WUHU216HW,2013-02-22 23:11:00,
2013-02-22 18:16:00,31.0,28.2,29.67,SSE,158,2.0,3.1,89,0.00,,,0.00,WUHU216HW,2013-02-22 23:16:00,
2013-02-22 18:21:00,31.0,28.2,29.67,SSE,158,0.9,3.1,89,0.00,,,0.00,WUHU216HW,2013-02-22 23:21:00,
2013-02-22 18:26:00,31.0,28.2,29.67,South,180,1.8,2.9,89,0.00,,,0.00,WUHU216HW,2013-02-22 23:26:00,
2013-02-22 18:31:00,31.0,28.2,29.67,SW,225,3.6,3.6,89,0.00,,,0.00,WUHU216HW,2013-02-22 23:31:00,
2013-02-22 18:36:00,31.1,28.4,29.67,SE,135,1.8,3.6,89,0.00,,,0.00,WUHU216HW,2013-02-22 23:36:00,
2013-02-22 18:41:00,31.1,28.4,29.67,SSW,203,3.1,3.6,89,0.00,,,0.00,WUHU216HW,2013-02-22 23:41:00,
2013-02-22 18:46:00,31.1,28.4,29.67,SW,225,1.8,3.1,89,0.00,,,0.00,WUHU216HW,2013-02-22 23:46:00,
2013-02-22 18:51:00,31.1,28.4,29.67,SW,225,1.1,3.1,89,0.00,,,0.00,WUHU216HW,2013-02-22 23:51:00,
2013-02-22 18:56:00,31.1,28.6,29.68,SSE,158,1.8,2.9,90,0.00,,,0.00,WUHU216HW,2013-02-22 23:56:00,
2013-02-22 19:01:00,31.1,28.6,29.68,SSE,158,0.4,2.9,90,0.00,,,0.00,WUHU216HW,2013-02-23 00:01:00,
2013-02-22 19:06:00,31.3,28.8,29.68,SSE,158,0.4,1.8,90,0.00,,,0.00,WUHU216HW,2013-02-23 00:06:00,
2013-02-22 19:11:00,31.3,28.5,29.68,SSW,203,0.9,1.1,89,0.00,,,0.00,WUHU216HW,2013-02-23 00:11:00,
2013-02-22 19:16:00,31.3,28.8,29.69,SSE,158,2.7,2.9,90,0.00,,,0.00,WUHU216HW,2013-02-23 00:16:00,
2013-02-22 19:21:00,31.3,28.5,29.69,SSE,158,1.3,2.9,89,0.00,,,0.00,WUHU216HW,2013-02-23 00:21:00,
2013-02-22 19:26:00,31.3,28.5,29.68,South,180,0.0,2.7,89,0.00,,,0.00,WUHU216HW,2013-02-23 00:26:00,
2013-02-22 19:31:00,31.3,28.5,29.68,SE,135,0.4,1.8,89,0.00,,,0.00,WUHU216HW,2013-02-23 00:31:00,
2013-02-22 19:36:00,31.3,28.5,29.68,South,180,1.1,4.5,89,0.00,,,0.00,WUHU216HW,2013-02-23 00:36:00,
2013-02-22 19:41:00,31.3,28.5,29.68,SW,225,2.5,4.5,89,0.00,,,0.00,WUHU216HW,2013-02-23 00:41:00,
2013-02-22 19:46:00,31.5,28.7,29.68,SSE,158,0.4,2.5,89,0.00,,,0.00,WUHU216HW,2013-02-23 00:46:00,
2013-02-22 19:51:00,31.5,28.7,29.67,SE,135,1.1,2.9,89,0.00,,,0.00,WUHU216HW,2013-02-23 00:51:00,
2013-02-22 19:56:00,31.5,28.7,29.67,SSW,203,0.4,2.9,89,0.00,,,0.00,WUHU216HW,2013-02-23 00:56:00,
2013-02-22 20:01:00,31.7,28.9,29.67,SE,135,0.4,3.1,89,0.00,,,0.00,WUHU216HW,2013-02-23 01:01:00,
2013-02-22 20:06:00,31.7,28.9,29.67,SSE,158,1.8,3.1,89,0.00,,,0.00,WUHU216HW,2013-02-23 01:06:00,
2013-02-22 20:11:00,31.7,28.9,29.67,SSE,158,0.4,2.5,89,0.00,,,0.00,WUHU216HW,2013-02-23 01:11:00,
2013-02-22 20:16:00,31.7,28.9,29.67,SW,225,2.7,2.7,89,0.00,,,0.00,WUHU216HW,2013-02-23 01:16:00,
2013-02-22 20:21:00,31.9,29.1,29.67,SSW,203,1.6,2.7,89,0.00,,,0.00,WUHU216HW,2013-02-23 01:21:00,
2013-02-22 20:26:00,31.9,29.1,29.67,South,180,2.9,2.9,89,0.00,,,0.00,WUHU216HW,2013-02-23 01:26:00,
2013-02-22 20:31:00,31.9,29.1,29.67,SSW,203,1.8,2.9,89,0.00,,,0.00,WUHU216HW,2013-02-23 01:31:00,
2013-02-22 20:36:00,31.9,29.1,29.67,SSW,203,0.7,2.5,89,0.00,,,0.00,WUHU216HW,2013-02-23 01:36:00,
2013-02-22 20:41:00,31.9,29.1,29.67,SSW,203,5.4,5.4,89,0.00,,,0.00,WUHU216HW,2013-02-23 01:41:00,
2013-02-22 20:46:00,32.0,29.3,29.67,SSW,203,4.0,6.7,89,0.00,,,0.00,WUHU216HW,2013-02-23 01:46:00,
2013-02-22 20:51:00,32.0,29.5,29.67,SW,225,2.2,6.7,90,0.00,,,0.00,WUHU216HW,2013-02-23 01:51:00,
2013-02-22 20:56:00,32.0,29.8,29.67,SW,225,0.4,4.0,91,0.00,,,0.00,WUHU216HW,2013-02-23 01:56:00,
2013-02-22 21:01:00,32.0,29.8,29.67,South,180,0.4,2.7,91,0.00,,,0.00,WUHU216HW,2013-02-23 02:01:00,
2013-02-22 21:06:00,32.0,29.8,29.67,South,180,1.1,3.4,91,0.00,,,0.00,WUHU216HW,2013-02-23 02:06:00,
2013-02-22 21:11:00,32.0,29.8,29.67,SSE,158,1.8,3.4,91,0.00,,,0.00,WUHU216HW,2013-02-23 02:11:00,
2013-02-22 21:16:00,32.0,29.8,29.67,SSW,203,2.2,3.4,91,0.00,,,0.00,WUHU216HW,2013-02-23 02:16:00,
2013-02-22 21:21:00,32.0,29.8,29.67,SSE,158,0.9,3.4,91,0.00,,,0.00,WUHU216HW,2013-02-23 02:21:00,
2013-02-22 21:26:00,32.2,30.0,29.67,WSW,248,1.6,3.6,91,0.00,,,0.00,WUHU216HW,2013-02-23 02:26:00,
2013-02-22 21:31:00,32.2,30.0,29.67,WSW,248,2.0,3.6,91,0.00,,,0.00,WUHU216HW,2013-02-23 02:31:00,
2013-02-22 21:36:00,32.2,30.0,29.67,South,180,1.6,2.5,91,0.00,,,0.00,WUHU216HW,2013-02-23 02:36:00,
2013-02-22 21:41:00,32.2,30.0,29.67,SSW,203,0.9,4.5,91,0.00,,,0.00,WUHU216HW,2013-02-23 02:41:00,
2013-02-22 21:46:00,32.2,30.0,29.67,South,180,0.9,4.5,91,0.00,,,0.00,WUHU216HW,2013-02-23 02:46:00,
2013-02-22 21:51:00,32.2,30.0,29.67,SSW,203,1.1,3.4,91,0.00,,,0.00,WUHU216HW,2013-02-23 02:51:00,
2013-02-22 21:56:00,32.0,29.8,29.67,SSW,203,4.0,4.0,91,0.00,,,0.00,WUHU216HW,2013-02-23 02:56:00,
2013-02-22 22:01:00,32.2,30.0,29.67,SSW,203,1.1,4.0,91,0.00,,,0.00,WUHU216HW,2013-02-23 03:01:00,
2013-02-22 22:06:00,32.2,30.0,29.68,SE,135,4.3,4.3,91,0.00,,,0.00,WUHU216HW,2013-02-23 03:06:00,
2013-02-22 22:11:00,32.2,30.0,29.68,SSE,158,3.4,4.3,91,0.00,,,0.00,WUHU216HW,2013-02-23 03:11:00,
2013-02-22 22:16:00,32.2,30.0,29.68,West,270,2.5,4.3,91,0.00,,,0.00,WUHU216HW,2013-02-23 03:16:00,
2013-02-22 22:21:00,32.2,30.0,29.68,SSW,203,0.9,3.4,91,0.00,,,0.00,WUHU216HW,2013-02-23 03:21:00,
2013-02-22 22:26:00,32.2,30.0,29.68,SSW,203,0.7,2.5,91,0.00,,,0.00,WUHU216HW,2013-02-23 03:26:00,
2013-02-22 22:31:00,32.2,30.2,29.67,SW,225,1.1,2.0,92,0.00,,,0.00,WUHU216HW,2013-02-23 03:31:00,
2013-02-22 22:36:00,32.2,30.0,29.67,South,180,4.0,4.0,91,0.00,,,0.00,WUHU216HW,2013-02-23 03:36:00,
2013-02-22 22:41:00,32.4,30.1,29.67,SSW,203,2.5,4.3,91,0.00,,,0.00,WUHU216HW,2013-02-23 03:41:00,
2013-02-22 22:46:00,32.4,30.3,29.67,SSW,203,3.1,4.3,92,0.00,,,0.00,WUHU216HW,2013-02-23 03:46:00,
2013-02-22 22:51:00,32.2,30.2,29.67,SSE,158,2.7,3.8,92,0.00,,,0.00,WUHU216HW,2013-02-23 03:51:00,
2013-02-22 22:56:00,32.2,30.2,29.67,SW,225,2.5,4.3,92,0.00,,,0.00,WUHU216HW,2013-02-23 03:56:00,
2013-02-22 23:01:00,32.2,30.0,29.67,SSW,203,3.1,4.3,91,0.00,,,0.00,WUHU216HW,2013-02-23 04:01:00,
2013-02-22 23:06:00,32.2,30.2,29.67,SW,225,2.0,4.0,92,0.00,,,0.00,WUHU216HW,2013-02-23 04:06:00,
2013-02-22 23:11:00,32.2,30.2,29.67,SSW,203,2.0,4.0,92,0.00,,,0.00,WUHU216HW,2013-02-23 04:11:00,
2013-02-22 23:16:00,32.2,30.2,29.67,SSW,203,2.7,6.3,92,0.00,,,0.00,WUHU216HW,2013-02-23 04:16:00,
2013-02-22 23:21:00,32.0,29.8,29.67,SSE,158,1.8,6.3,91,0.00,,,0.00,WUHU216HW,2013-02-23 04:21:00,
2013-02-22 23:26:00,32.0,29.8,29.67,SSE,158,1.8,3.1,91,0.00,,,0.00,WUHU216HW,2013-02-23 04:26:00,
2013-02-22 23:31:00,32.0,29.8,29.67,South,180,1.1,3.1,91,0.00,,,0.00,WUHU216HW,2013-02-23 04:31:00,
2013-02-22 23:36:00,32.0,29.8,29.66,SSW,203,2.9,2.9,91,0.00,,,0.00,WUHU216HW,2013-02-23 04:36:00,
2013-02-22 23:41:00,32.0,29.5,29.67,SSW,203,1.1,2.9,90,0.00,,,0.00,WUHU216HW,2013-02-23 04:41:00,
2013-02-22 23:46:00,32.0,29.5,29.67,SSW,203,5.8,5.8,90,0.00,,,0.00,WUHU216HW,2013-02-23 04:46:00,
2013-02-22 23:51:00,32.0,29.8,29.67,SW,225,0.4,5.8,91,0.00,,,0.00,WUHU216HW,2013-02-23 04:51:00,
2013-02-22 23:56:00,31.9,29.3,29.67,SW,225,1.8,5.8,90,0.00,,,0.00,WUHU216HW,2013-02-23 04:56:00,